Вернуться в каталог

STARLINK-37685

АктивенСвязьVLEO
NORAD 69373·PAYLOAD·🇺🇸 United States

Запущен Jun 4, 2026 с Cape Canaveral Space Force Station

Loading…

Ближайшие Пролёты (ближайшие 24 часа)

TLE

СвежийSource: CelesTrak SupGP

Эпоха: Sep 14, 2026, 21:13 UTC

1 69373C 26123W   26257.88451389 -.00020377  00000+0 -60178-3 0  2572
2 69373  53.1574 167.6447 0001199  78.1970 221.3060 15.34415415    10

Отслеживайте STARLINK-37685 в реальном времени с AllMySat

Download on the App Store